Time,TemperatureF,DewpointF,PressureIn,WindDirection,WindDirectionDegrees,WindSpeedMPH,WindSpeedGustMPH,Humidity,HourlyPrecipIn,Conditions,Clouds,dailyrainin,SoftwareType,DateUTC
2013-06-08 00:01:00,56.1,55.6,29.72,NW,304,4.0,4.0,98,0.00,,,0.04,VWS V14.01,2013-06-08 04:01:00,
2013-06-08 00:02:00,56.1,55.6,29.72,NW,304,0.0,4.0,98,0.00,,,0.00,VWS V14.01,2013-06-08 04:02:00,
2013-06-08 00:03:00,56.1,55.6,29.72,NW,304,0.0,0.0,98,0.00,,,0.00,VWS V14.01,2013-06-08 04:03:00,
2013-06-08 00:07:00,56.1,55.6,29.72,WNW,288,0.0,4.0,98,0.00,,,0.00,VWS V14.01,2013-06-08 04:07:00,
2013-06-08 00:09:00,56.1,55.6,29.72,WNW,301,3.1,3.6,98,0.00,,,0.00,VWS V14.01,2013-06-08 04:09:00,
2013-06-08 00:14:00,56.1,55.6,29.72,NW,315,0.0,2.7,98,0.00,,,0.00,VWS V14.01,2013-06-08 04:14:00,
2013-06-08 00:19:00,56.1,55.6,29.72,NW,315,0.0,0.0,98,0.00,,,0.00,VWS V14.01,2013-06-08 04:19:00,
2013-06-08 00:24:00,56.1,55.6,29.72,WNW,290,2.7,5.4,98,0.00,,,0.00,VWS V14.01,2013-06-08 04:24:00,
2013-06-08 00:29:00,56.1,55.6,29.72,NNW,327,4.0,5.4,98,0.00,,,0.00,VWS V14.01,2013-06-08 04:29:00,
2013-06-08 00:34:00,56.1,55.6,29.72,NW,308,7.6,7.6,98,0.00,,,0.00,VWS V14.01,2013-06-08 04:34:00,
2013-06-08 00:39:00,55.9,55.4,29.72,NW,318,3.1,8.1,98,0.00,,,0.00,VWS V14.01,2013-06-08 04:39:00,
2013-06-08 00:44:00,55.9,55.4,29.72,NNW,335,0.0,5.4,98,0.00,,,0.00,VWS V14.01,2013-06-08 04:44:00,
2013-06-08 00:49:00,55.9,55.4,29.72,NW,326,3.6,5.4,98,0.00,,,0.00,VWS V14.01,2013-06-08 04:49:00,
2013-06-08 00:54:00,55.9,55.4,29.72,North,350,0.0,3.6,98,0.00,,,0.00,VWS V14.01,2013-06-08 04:54:00,
2013-06-08 00:59:00,55.9,55.4,29.72,NW,312,2.2,4.9,98,0.00,,,0.00,VWS V14.01,2013-06-08 04:59:00,
2013-06-08 01:04:00,55.9,55.4,29.72,NNW,332,3.6,4.0,98,0.00,,,0.00,VWS V14.01,2013-06-08 05:04:00,
2013-06-08 01:09:00,55.9,55.4,29.72,NNW,339,3.1,5.4,98,0.00,,,0.00,VWS V14.01,2013-06-08 05:09:00,
2013-06-08 01:14:00,55.9,55.4,29.72,NW,325,4.0,5.8,98,0.00,,,0.00,VWS V14.01,2013-06-08 05:14:00,
2013-06-08 01:20:00,55.9,55.4,29.72,NW,326,3.1,5.4,98,0.00,,,0.00,VWS V14.01,2013-06-08 05:20:00,
2013-06-08 01:25:00,55.9,55.4,29.72,NNW,334,4.0,5.4,98,0.00,,,0.00,VWS V14.01,2013-06-08 05:25:00,
2013-06-08 01:30:00,55.9,55.4,29.72,NNW,327,2.7,5.8,98,0.00,,,0.00,VWS V14.01,2013-06-08 05:30:00,
2013-06-08 01:35:00,55.9,55.4,29.72,NNW,335,5.4,5.8,98,0.00,,,0.00,VWS V14.01,2013-06-08 05:35:00,
2013-06-08 01:40:00,55.9,55.4,29.72,WNW,300,2.2,3.6,98,0.00,,,0.00,VWS V14.01,2013-06-08 05:40:00,
2013-06-08 01:45:00,55.9,55.4,29.72,NNW,340,2.7,4.0,98,0.00,,,0.00,VWS V14.01,2013-06-08 05:45:00,
2013-06-08 01:50:00,55.9,55.4,29.72,NNW,337,4.0,4.5,98,0.00,,,0.00,VWS V14.01,2013-06-08 05:50:00,
2013-06-08 01:55:00,55.9,55.4,29.72,NW,320,4.0,6.3,98,0.00,,,0.00,VWS V14.01,2013-06-08 05:55:00,
2013-06-08 02:00:00,55.9,55.4,29.72,North,5,2.7,5.4,98,0.00,,,0.00,VWS V14.01,2013-06-08 06:00:00,
2013-06-08 02:05:00,55.8,55.2,29.72,NW,309,3.6,6.3,98,0.00,,,0.00,VWS V14.01,2013-06-08 06:05:00,
2013-06-08 02:10:00,55.8,55.2,29.72,WNW,293,4.0,5.4,98,0.00,,,0.00,VWS V14.01,2013-06-08 06:10:00,
2013-06-08 02:15:00,55.8,55.2,29.72,NW,312,3.1,5.8,98,0.00,,,0.00,VWS V14.01,2013-06-08 06:15:00,
2013-06-08 02:20:00,55.8,55.2,29.72,NNW,327,3.1,4.0,98,0.00,,,0.00,VWS V14.01,2013-06-08 06:20:00,
2013-06-08 02:25:00,55.8,55.2,29.72,NNW,332,4.9,4.9,98,0.00,,,0.00,VWS V14.01,2013-06-08 06:25:00,
2013-06-08 02:30:00,55.8,55.2,29.72,NNW,341,5.4,5.4,98,0.00,,,0.00,VWS V14.01,2013-06-08 06:30:00,
2013-06-08 02:35:00,55.6,55.0,29.72,NW,314,2.7,6.7,98,0.00,,-RA,0.00,VWS V14.01,2013-06-08 06:35:00,
2013-06-08 02:40:00,55.6,55.0,29.72,NNW,335,4.0,6.3,98,0.00,,-RA,0.00,VWS V14.01,2013-06-08 06:40:00,
2013-06-08 02:45:00,55.6,55.0,29.72,NW,324,4.0,5.4,98,0.00,,-RA,0.00,VWS V14.01,2013-06-08 06:45:00,
2013-06-08 02:51:00,55.6,55.0,29.72,West,280,2.7,4.0,98,0.00,,-RA,0.00,VWS V14.01,2013-06-08 06:51:00,
2013-06-08 02:56:00,55.6,55.0,29.72,NW,325,0.0,4.0,98,0.00,,-RA,0.00,VWS V14.01,2013-06-08 06:56:00,
2013-06-08 03:01:00,55.8,55.2,29.72,NW,310,0.0,4.0,98,0.00,,-RA,0.00,VWS V14.01,2013-06-08 07:01:00,
2013-06-08 03:06:00,55.8,55.2,29.72,NW,316,3.1,4.0,98,0.00,,-RA,0.00,VWS V14.01,2013-06-08 07:06:00,
2013-06-08 03:11:00,55.8,55.2,29.72,NW,323,0.0,5.4,98,0.00,,-RA,0.00,VWS V14.01,2013-06-08 07:11:00,
2013-06-08 03:17:00,55.8,55.2,29.72,NNW,341,2.7,2.7,98,0.00,,-RA,0.00,VWS V14.01,2013-06-08 07:17:00,
2013-06-08 03:22:00,55.8,55.2,29.72,NW,316,2.2,3.6,98,0.00,,-RA,0.00,VWS V14.01,2013-06-08 07:22:00,
2013-06-08 03:27:00,55.8,55.2,29.72,NW,324,2.7,3.6,98,0.00,,-RA,0.00,VWS V14.01,2013-06-08 07:27:00,
2013-06-08 03:32:00,55.8,55.2,29.72,NW,313,3.6,6.3,98,0.00,,-RA,0.00,VWS V14.01,2013-06-08 07:32:00,
2013-06-08 03:37:00,55.8,55.2,29.72,WNW,293,5.4,5.4,98,0.00,,-RA,0.00,VWS V14.01,2013-06-08 07:37:00,
2013-06-08 03:42:00,55.8,55.2,29.72,NNW,334,2.2,2.7,98,0.00,,-RA,0.00,VWS V14.01,2013-06-08 07:42:00,
2013-06-08 03:47:00,55.8,55.2,29.72,West,272,0.0,0.0,98,0.00,,-RA,0.00,VWS V14.01,2013-06-08 07:47:00,
2013-06-08 03:52:00,55.8,55.2,29.72,WNW,291,2.2,2.7,98,0.00,,-RA,0.00,VWS V14.01,2013-06-08 07:52:00,
2013-06-08 03:57:00,55.8,55.2,29.72,NW,326,2.2,3.6,98,0.00,,-RA,0.00,VWS V14.01,2013-06-08 07:57:00,
2013-06-08 04:03:00,55.8,55.2,29.72,NW,305,2.7,3.6,98,0.00,,-RA,0.00,VWS V14.01,2013-06-08 08:03:00,
2013-06-08 04:08:00,55.8,55.2,29.72,NW,314,0.0,0.0,98,0.00,,-RA,0.00,VWS V14.01,2013-06-08 08:08:00,
2013-06-08 04:13:00,55.8,55.2,29.72,NNW,341,4.0,4.0,98,0.00,,-RA,0.00,VWS V14.01,2013-06-08 08:13:00,
2013-06-08 04:18:00,55.6,55.0,29.72,West,271,0.0,4.9,98,0.00,,-RA,0.00,VWS V14.01,2013-06-08 08:18:00,
2013-06-08 04:23:00,55.6,55.0,29.72,NNW,334,3.1,5.8,98,0.00,,-RA,0.00,VWS V14.01,2013-06-08 08:23:00,
2013-06-08 04:28:00,55.6,55.0,29.72,NNW,341,4.0,5.8,98,0.00,,-RA,0.00,VWS V14.01,2013-06-08 08:28:00,
2013-06-08 04:33:00,55.4,54.8,29.72,NNW,329,3.6,6.3,98,0.00,,-RA,0.00,VWS V14.01,2013-06-08 08:33:00,
2013-06-08 04:38:00,55.4,54.8,29.72,NNW,340,5.4,5.4,98,0.00,,-RA,0.00,VWS V14.01,2013-06-08 08:38:00,
2013-06-08 04:43:00,55.4,54.8,29.72,NW,318,4.9,4.9,98,0.00,,-RA,0.00,VWS V14.01,2013-06-08 08:43:00,
2013-06-08 04:48:00,55.4,54.8,29.72,NNW,330,2.7,4.0,98,0.00,,-RA,0.00,VWS V14.01,2013-06-08 08:48:00,
2013-06-08 04:53:00,55.6,55.0,29.72,WNW,301,0.0,0.0,98,0.00,,-RA,0.00,VWS V14.01,2013-06-08 08:53:00,
2013-06-08 04:58:00,55.6,55.0,29.72,NW,313,0.0,0.0,98,0.00,,-RA,0.00,VWS V14.01,2013-06-08 08:58:00,
2013-06-08 05:03:00,55.6,55.0,29.72,NW,324,4.5,4.5,98,0.00,,-RA,0.00,VWS V14.01,2013-06-08 09:03:00,
2013-06-08 05:08:00,55.6,55.0,29.75,NW,324,2.2,2.7,98,0.00,,-RA,0.00,VWS V14.01,2013-06-08 09:08:00,
2013-06-08 05:13:00,55.6,55.0,29.75,NW,314,0.0,3.6,98,0.00,,-RA,0.00,VWS V14.01,2013-06-08 09:13:00,
2013-06-08 05:18:00,55.6,55.0,29.75,NW,326,0.0,0.0,98,0.00,,-RA,0.00,VWS V14.01,2013-06-08 09:18:00,
2013-06-08 05:23:00,55.8,55.2,29.75,NW,305,0.0,4.0,98,0.00,,-RA,0.00,VWS V14.01,2013-06-08 09:23:00,
2013-06-08 05:28:00,55.6,55.0,29.75,NW,311,0.0,0.0,98,0.00,,-RA,0.00,VWS V14.01,2013-06-08 09:28:00,
2013-06-08 05:33:00,55.8,55.2,29.75,WNW,295,3.6,3.6,98,0.00,,,0.00,VWS V14.01,2013-06-08 09:33:00,
2013-06-08 05:38:00,55.8,55.2,29.75,NW,313,5.8,5.8,98,0.00,,,0.00,VWS V14.01,2013-06-08 09:38:00,
2013-06-08 05:43:00,55.6,55.0,29.75,West,273,3.1,4.0,98,0.00,,,0.00,VWS V14.01,2013-06-08 09:43:00,
2013-06-08 05:48:00,55.6,55.0,29.75,WNW,299,2.7,5.8,98,0.00,,,0.00,VWS V14.01,2013-06-08 09:48:00,
2013-06-08 05:53:00,55.6,55.0,29.75,West,272,0.0,5.4,98,0.00,,,0.00,VWS V14.01,2013-06-08 09:53:00,
2013-06-08 05:58:00,55.8,55.2,29.75,WNW,287,0.0,3.6,98,0.00,,,0.00,VWS V14.01,2013-06-08 09:58:00,
2013-06-08 06:03:00,55.8,55.2,29.75,WNW,295,0.0,2.7,98,0.00,,,0.00,VWS V14.01,2013-06-08 10:03:00,
2013-06-08 06:08:00,55.8,55.2,29.75,NW,304,0.0,0.0,98,0.00,,,0.00,VWS V14.01,2013-06-08 10:08:00,
2013-06-08 06:13:00,55.8,55.2,29.75,SSW,206,0.0,3.1,98,0.00,,,0.00,VWS V14.01,2013-06-08 10:13:00,
2013-06-08 06:18:00,55.9,55.4,29.75,WSW,257,2.7,4.9,98,0.00,,,0.00,VWS V14.01,2013-06-08 10:18:00,
2013-06-08 06:23:00,55.9,55.4,29.75,WNW,287,0.0,2.7,98,0.00,,,0.00,VWS V14.01,2013-06-08 10:23:00,
2013-06-08 06:28:00,55.9,55.4,29.75,WNW,286,0.0,0.0,98,0.00,,,0.00,VWS V14.01,2013-06-08 10:28:00,
2013-06-08 06:34:00,55.9,55.4,29.75,West,275,2.7,2.7,98,0.00,,,0.00,VWS V14.01,2013-06-08 10:34:00,
2013-06-08 06:39:00,55.9,55.4,29.78,NNW,335,2.2,3.1,98,0.00,,,0.00,VWS V14.01,2013-06-08 10:39:00,
2013-06-08 06:44:00,55.9,55.4,29.78,NNW,335,4.0,4.0,98,0.00,,,0.00,VWS V14.01,2013-06-08 10:44:00,
2013-06-08 06:49:00,55.9,55.4,29.78,WNW,303,3.1,3.6,98,0.00,,,0.00,VWS V14.01,2013-06-08 10:49:00,
2013-06-08 06:54:00,55.9,55.4,29.78,NNW,339,5.4,5.4,98,0.00,,,0.00,VWS V14.01,2013-06-08 10:54:00,
2013-06-08 06:59:00,55.9,55.4,29.78,NNW,335,5.4,5.8,98,0.00,,,0.00,VWS V14.01,2013-06-08 10:59:00,
2013-06-08 07:04:00,56.1,55.6,29.78,NNW,334,2.7,4.9,98,0.00,,,0.00,VWS V14.01,2013-06-08 11:04:00,
2013-06-08 07:09:00,56.3,55.8,29.78,NNW,328,0.0,2.2,98,0.00,,,0.00,VWS V14.01,2013-06-08 11:09:00,
2013-06-08 07:14:00,56.3,55.8,29.78,NW,323,0.0,3.1,98,0.00,,,0.00,VWS V14.01,2013-06-08 11:14:00,
2013-06-08 07:19:00,56.3,55.8,29.78,NNW,335,4.0,4.0,98,0.00,,,0.00,VWS V14.01,2013-06-08 11:19:00,
2013-06-08 07:24:00,56.3,55.8,29.78,NW,320,2.2,4.0,98,0.00,,,0.00,VWS V14.01,2013-06-08 11:24:00,
2013-06-08 07:29:00,56.3,55.8,29.78,WNW,288,0.0,3.1,98,0.00,,,0.00,VWS V14.01,2013-06-08 11:29:00,
2013-06-08 07:35:00,56.3,55.8,29.78,WNW,299,3.6,4.9,98,0.00,,OVC011,0.00,VWS V14.01,2013-06-08 11:35:00,
2013-06-08 07:40:00,56.7,56.1,29.78,NNW,331,0.0,0.0,98,0.00,,OVC011,0.00,VWS V14.01,2013-06-08 11:40:00,
2013-06-08 07:45:00,56.7,56.1,29.78,NNW,345,0.0,2.7,98,0.00,,OVC011,0.00,VWS V14.01,2013-06-08 11:45:00,
2013-06-08 07:50:00,56.7,56.1,29.78,West,273,0.0,3.6,98,0.00,,OVC011,0.00,VWS V14.01,2013-06-08 11:50:00,
2013-06-08 07:55:00,56.7,56.1,29.78,NNW,330,0.0,4.0,98,0.00,,OVC011,0.00,VWS V14.01,2013-06-08 11:55:00,
2013-06-08 08:00:00,56.7,56.1,29.78,SW,228,0.0,0.0,98,0.00,,OVC011,0.00,VWS V14.01,2013-06-08 12:00:00,
2013-06-08 08:05:00,56.7,56.1,29.78,WNW,291,0.0,5.4,98,0.00,,OVC011,0.00,VWS V14.01,2013-06-08 12:05:00,
2013-06-08 08:10:00,56.7,56.1,29.80,West,260,2.2,3.6,98,0.00,,OVC011,0.00,VWS V14.01,2013-06-08 12:10:00,
2013-06-08 08:15:00,57.2,56.6,29.80,SW,230,3.6,4.9,98,0.00,,OVC011,0.00,VWS V14.01,2013-06-08 12:15:00,
2013-06-08 08:20:00,57.2,56.6,29.80,SW,235,0.0,5.4,98,0.00,,OVC011,0.00,VWS V14.01,2013-06-08 12:20:00,
2013-06-08 08:25:00,57.2,56.6,29.80,SSW,210,2.2,3.1,98,0.00,,OVC011,0.00,VWS V14.01,2013-06-08 12:25:00,
2013-06-08 08:30:00,57.4,56.8,29.80,WNW,290,3.1,3.1,98,0.00,,OVC011,0.00,VWS V14.01,2013-06-08 12:30:00,
2013-06-08 08:35:00,57.4,56.8,29.80,WSW,247,2.7,6.3,98,0.00,,,0.00,VWS V14.01,2013-06-08 12:35:00,
2013-06-08 08:40:00,57.4,56.8,29.80,SW,235,3.6,4.0,98,0.00,,,0.00,VWS V14.01,2013-06-08 12:40:00,
2013-06-08 08:45:00,57.4,56.8,29.80,West,270,0.0,6.3,98,0.00,,,0.00,VWS V14.01,2013-06-08 12:45:00,
2013-06-08 08:50:00,57.6,57.0,29.80,West,261,0.0,5.8,98,0.00,,,0.00,VWS V14.01,2013-06-08 12:50:00,
2013-06-08 08:55:00,57.6,57.0,29.80,West,273,3.6,6.3,98,0.00,,,0.00,VWS V14.01,2013-06-08 12:55:00,
2013-06-08 09:00:00,57.9,57.4,29.80,WNW,299,3.6,3.6,98,0.00,,,0.00,VWS V14.01,2013-06-08 13:00:00,
2013-06-08 09:05:00,57.9,57.4,29.80,WSW,249,0.0,4.9,98,0.00,,,0.00,VWS V14.01,2013-06-08 13:05:00,
2013-06-08 09:10:00,57.9,57.4,29.80,West,267,4.9,6.3,98,0.00,,,0.00,VWS V14.01,2013-06-08 13:10:00,
2013-06-08 09:15:00,57.9,57.4,29.80,NNW,327,5.4,8.3,98,0.00,,,0.00,VWS V14.01,2013-06-08 13:15:00,
2013-06-08 09:20:00,58.3,57.7,29.80,SW,233,3.6,4.0,98,0.00,,,0.00,VWS V14.01,2013-06-08 13:20:00,
2013-06-08 09:26:00,58.3,57.7,29.80,WSW,258,3.6,5.8,98,0.00,,,0.00,VWS V14.01,2013-06-08 13:26:00,
2013-06-08 09:31:00,58.1,57.5,29.80,NNW,327,0.0,5.8,98,0.00,,,0.00,VWS V14.01,2013-06-08 13:31:00,
2013-06-08 09:36:00,58.1,57.5,29.80,SW,235,2.7,6.3,98,0.00,,,0.00,VWS V14.01,2013-06-08 13:36:00,
2013-06-08 09:41:00,58.1,57.5,29.80,SSW,212,2.2,2.7,98,0.00,,,0.00,VWS V14.01,2013-06-08 13:41:00,
2013-06-08 09:46:00,58.5,57.9,29.80,SW,221,2.7,5.4,98,0.00,,,0.00,VWS V14.01,2013-06-08 13:46:00,
2013-06-08 09:51:00,58.6,58.1,29.80,WSW,243,0.0,6.3,98,0.00,,,0.00,VWS V14.01,2013-06-08 13:51:00,
2013-06-08 09:56:00,58.6,58.1,29.83,SW,232,6.3,6.3,98,0.00,,,0.00,VWS V14.01,2013-06-08 13:56:00,
2013-06-08 10:02:00,58.6,58.1,29.83,West,271,0.0,7.6,98,0.00,,,0.00,VWS V14.01,2013-06-08 14:02:00,
2013-06-08 10:07:00,58.6,58.1,29.80,WSW,256,2.2,3.6,98,0.00,,-RA,0.00,VWS V14.01,2013-06-08 14:07:00,
2013-06-08 10:12:00,58.6,58.1,29.80,NW,323,2.7,5.8,98,0.00,,-RA,0.00,VWS V14.01,2013-06-08 14:12:00,
2013-06-08 10:17:00,58.6,58.1,29.80,WSW,258,3.6,7.6,98,0.00,,-RA,0.00,VWS V14.01,2013-06-08 14:17:00,
2013-06-08 10:22:00,58.6,58.1,29.80,WSW,252,3.1,4.0,98,0.00,,-RA,0.00,VWS V14.01,2013-06-08 14:22:00,
2013-06-08 10:27:00,58.6,58.1,29.80,West,261,0.0,5.4,98,0.00,,-RA,0.00,VWS V14.01,2013-06-08 14:27:00,
2013-06-08 10:32:00,58.6,58.1,29.80,West,281,2.7,5.8,98,0.00,,-RA,0.00,VWS V14.01,2013-06-08 14:32:00,
2013-06-08 10:38:00,58.6,58.1,29.80,WSW,247,2.7,6.3,98,0.00,,-RA,0.00,VWS V14.01,2013-06-08 14:38:00,
2013-06-08 10:43:00,58.6,58.1,29.80,WSW,245,5.4,5.4,98,0.00,,-RA,0.00,VWS V14.01,2013-06-08 14:43:00,
2013-06-08 10:48:00,58.6,58.1,29.80,West,266,2.7,5.8,98,0.00,,-RA,0.00,VWS V14.01,2013-06-08 14:48:00,
2013-06-08 10:53:00,58.6,58.1,29.80,NW,325,3.1,4.9,98,0.00,,-RA,0.00,VWS V14.01,2013-06-08 14:53:00,
2013-06-08 10:58:00,58.6,58.1,29.80,West,281,4.9,4.9,98,0.00,,-RA,0.00,VWS V14.01,2013-06-08 14:58:00,
2013-06-08 11:03:00,58.6,58.1,29.80,North,7,3.1,3.1,98,0.00,,-RA,0.00,VWS V14.01,2013-06-08 15:03:00,
2013-06-08 11:08:00,58.6,58.1,29.83,WNW,299,4.0,6.7,98,0.00,,-RA,0.00,VWS V14.01,2013-06-08 15:08:00,
2013-06-08 11:13:00,58.6,58.1,29.83,West,264,4.0,8.7,98,0.00,,-RA,0.00,VWS V14.01,2013-06-08 15:13:00,
2013-06-08 11:18:00,60.3,57.9,29.83,North,0,2.2,5.8,92,0.00,,-RA,0.00,VWS V14.01,2013-06-08 15:18:00,
2013-06-08 11:23:00,61.3,59.0,29.83,SSW,195,3.1,6.3,92,0.00,,-RA,0.00,VWS V14.01,2013-06-08 15:23:00,
2013-06-08 11:28:00,61.3,58.7,29.83,West,274,6.7,7.6,91,0.00,,-RA,0.00,VWS V14.01,2013-06-08 15:28:00,
2013-06-08 11:33:00,61.0,57.7,29.83,WSW,252,3.1,8.7,89,0.00,,OVC015,0.00,VWS V14.01,2013-06-08 15:33:00,
2013-06-08 11:38:00,61.0,57.7,29.83,SW,226,0.0,4.0,89,0.00,,OVC015,0.00,VWS V14.01,2013-06-08 15:38:00,
2013-06-08 11:43:00,61.0,57.7,29.83,West,268,5.8,6.3,89,0.00,,OVC015,0.00,VWS V14.01,2013-06-08 15:43:00,
2013-06-08 11:48:00,60.6,57.7,29.83,SSW,203,0.0,4.9,90,0.00,,OVC015,0.00,VWS V14.01,2013-06-08 15:48:00,
2013-06-08 11:53:00,60.6,57.7,29.83,SW,236,4.5,4.5,90,0.00,,OVC015,0.00,VWS V14.01,2013-06-08 15:53:00,
2013-06-08 11:58:00,60.6,57.7,29.83,NNW,329,2.2,5.8,90,0.00,,OVC015,0.00,VWS V14.01,2013-06-08 15:58:00,
2013-06-08 12:03:00,60.6,57.7,29.83,WSW,247,0.0,3.6,90,0.00,,OVC046,0.00,VWS V14.01,2013-06-08 16:03:00,
2013-06-08 12:08:00,60.6,57.7,29.83,WSW,248,3.6,6.3,90,0.00,,OVC046,0.00,VWS V14.01,2013-06-08 16:08:00,
2013-06-08 12:13:00,60.6,57.7,29.83,NW,304,2.7,6.3,90,0.00,,OVC046,0.00,VWS V14.01,2013-06-08 16:13:00,
2013-06-08 12:18:00,60.6,57.7,29.83,WSW,248,2.2,5.4,90,0.00,,OVC046,0.00,VWS V14.01,2013-06-08 16:18:00,
2013-06-08 12:23:00,60.6,57.7,29.83,NW,319,3.1,7.6,90,0.00,,OVC046,0.00,VWS V14.01,2013-06-08 16:23:00,
2013-06-08 12:29:00,60.6,57.7,29.83,WSW,257,5.8,7.6,90,0.00,,OVC046,0.00,VWS V14.01,2013-06-08 16:29:00,
2013-06-08 12:34:00,60.6,57.7,29.83,WSW,255,0.0,2.7,90,0.00,,OVC046,0.00,VWS V14.01,2013-06-08 16:34:00,
2013-06-08 12:39:00,60.6,57.7,29.83,West,265,8.3,8.3,90,0.00,,OVC046,0.00,VWS V14.01,2013-06-08 16:39:00,
2013-06-08 12:44:00,60.6,57.7,29.83,WSW,258,5.4,8.7,90,0.00,,OVC046,0.00,VWS V14.01,2013-06-08 16:44:00,
2013-06-08 12:49:00,60.6,57.7,29.83,NW,306,4.0,6.3,90,0.00,,OVC046,0.00,VWS V14.01,2013-06-08 16:49:00,
2013-06-08 12:54:00,60.6,57.7,29.83,West,276,3.6,10.1,90,0.00,,OVC046,0.00,VWS V14.01,2013-06-08 16:54:00,
2013-06-08 12:59:00,60.6,57.7,29.83,NNW,337,5.8,6.7,90,0.00,,OVC046,0.00,VWS V14.01,2013-06-08 16:59:00,
2013-06-08 13:04:00,60.6,57.7,29.83,NNW,329,6.3,8.7,90,0.00,,OVC027,0.00,VWS V14.01,2013-06-08 17:04:00,
2013-06-08 13:09:00,60.6,57.7,29.83,NW,316,6.3,10.1,90,0.00,,OVC027,0.00,VWS V14.01,2013-06-08 17:09:00,
2013-06-08 13:14:00,60.6,57.7,29.83,NW,326,7.6,8.3,90,0.00,,OVC027,0.00,VWS V14.01,2013-06-08 17:14:00,
2013-06-08 13:19:00,60.6,57.7,29.83,NW,326,5.8,7.6,90,0.00,,OVC027,0.00,VWS V14.01,2013-06-08 17:19:00,
2013-06-08 13:24:00,60.4,54.9,29.83,NNW,327,5.4,8.7,82,0.00,,OVC027,0.00,VWS V14.01,2013-06-08 17:24:00,
2013-06-08 13:29:00,60.4,54.9,29.83,NNW,343,5.4,8.3,82,0.00,,OVC027,0.00,VWS V14.01,2013-06-08 17:29:00,
2013-06-08 13:34:00,60.4,54.9,29.83,NW,316,4.9,6.3,82,0.00,,OVC046,0.00,VWS V14.01,2013-06-08 17:34:00,
2013-06-08 13:39:00,60.4,54.9,29.86,NW,320,5.8,6.3,82,0.00,,OVC046,0.00,VWS V14.01,2013-06-08 17:39:00,
2013-06-08 13:44:00,60.4,54.9,29.86,NW,317,2.2,6.3,82,0.00,,OVC046,0.00,VWS V14.01,2013-06-08 17:44:00,
2013-06-08 13:50:00,60.4,55.3,29.86,West,280,4.0,6.3,83,0.00,,OVC046,0.00,VWS V14.01,2013-06-08 17:50:00,
2013-06-08 13:55:00,60.4,55.3,29.86,West,260,7.6,7.6,83,0.00,,OVC046,0.00,VWS V14.01,2013-06-08 17:55:00,
2013-06-08 14:00:00,60.4,55.3,29.86,SW,224,2.7,6.3,83,0.00,,OVC046,0.00,VWS V14.01,2013-06-08 18:00:00,
2013-06-08 14:05:00,60.6,55.8,29.86,NW,308,0.0,6.3,84,0.00,,OVC041,0.00,VWS V14.01,2013-06-08 18:05:00,
2013-06-08 14:10:00,60.6,55.4,29.86,NW,309,2.7,8.1,83,0.00,,OVC041,0.00,VWS V14.01,2013-06-08 18:10:00,
2013-06-08 14:15:00,60.6,55.4,29.86,WNW,286,4.9,4.9,83,0.00,,OVC041,0.00,VWS V14.01,2013-06-08 18:15:00,
2013-06-08 14:20:00,60.6,55.4,29.86,WSW,250,5.8,6.7,83,0.00,,OVC041,0.00,VWS V14.01,2013-06-08 18:20:00,
2013-06-08 14:25:00,60.6,55.4,29.86,WSW,243,4.0,8.3,83,0.00,,OVC041,0.00,VWS V14.01,2013-06-08 18:25:00,
2013-06-08 14:30:00,60.6,55.4,29.86,NW,305,2.2,6.3,83,0.00,,OVC041,0.00,VWS V14.01,2013-06-08 18:30:00,
2013-06-08 14:35:00,60.6,55.4,29.86,West,265,3.1,6.3,83,0.00,,OVC044,0.00,VWS V14.01,2013-06-08 18:35:00,
2013-06-08 14:40:00,60.6,55.4,29.86,WSW,251,2.7,5.8,83,0.00,,OVC044,0.00,VWS V14.01,2013-06-08 18:40:00,
2013-06-08 14:45:00,60.6,55.4,29.86,West,262,3.1,3.6,83,0.00,,OVC044,0.00,VWS V14.01,2013-06-08 18:45:00,
2013-06-08 14:50:00,60.6,55.4,29.86,West,269,4.0,5.4,83,0.00,,OVC044,0.00,VWS V14.01,2013-06-08 18:50:00,
2013-06-08 14:55:00,60.6,55.4,29.86,SW,228,3.6,6.3,83,0.00,,OVC044,0.00,VWS V14.01,2013-06-08 18:55:00,
2013-06-08 15:00:00,60.6,55.1,29.86,SSW,212,0.0,5.4,82,0.00,,OVC044,0.00,VWS V14.01,2013-06-08 19:00:00,
2013-06-08 15:05:00,60.6,55.1,29.86,SW,215,3.1,5.8,82,0.00,,-RA,0.00,VWS V14.01,2013-06-08 19:05:00,
2013-06-08 15:11:00,60.6,55.1,29.86,SW,224,5.4,6.3,82,0.00,,-RA,0.00,VWS V14.01,2013-06-08 19:11:00,
2013-06-08 15:16:00,60.6,55.1,29.86,WNW,286,3.1,3.1,82,0.00,,-RA,0.00,VWS V14.01,2013-06-08 19:16:00,
2013-06-08 15:21:00,60.6,55.1,29.86,SW,232,6.3,6.3,82,0.00,,-RA,0.00,VWS V14.01,2013-06-08 19:21:00,
2013-06-08 15:26:00,60.6,55.1,29.86,WNW,288,3.1,4.9,82,0.00,,-RA,0.00,VWS V14.01,2013-06-08 19:26:00,
2013-06-08 15:31:00,60.6,55.1,29.86,SSW,200,4.0,4.0,82,0.00,,-RA,0.00,VWS V14.01,2013-06-08 19:31:00,
2013-06-08 15:36:00,61.2,55.0,29.86,WSW,254,6.3,8.1,80,0.00,,OVC033,0.00,VWS V14.01,2013-06-08 19:36:00,
2013-06-08 15:41:00,61.0,54.1,29.86,West,266,5.8,8.3,78,0.00,,OVC033,0.00,VWS V14.01,2013-06-08 19:41:00,
2013-06-08 15:46:00,61.0,53.7,29.86,WSW,256,4.0,4.9,77,0.00,,OVC033,0.00,VWS V14.01,2013-06-08 19:46:00,
2013-06-08 15:51:00,61.2,53.9,29.86,South,180,4.9,7.6,77,0.00,,OVC033,0.00,VWS V14.01,2013-06-08 19:51:00,
2013-06-08 15:56:00,61.0,53.4,29.86,SW,214,4.0,8.1,76,0.00,,OVC033,0.00,VWS V14.01,2013-06-08 19:56:00,
2013-06-08 16:02:00,61.0,53.0,29.86,West,280,3.1,9.6,75,0.00,,OVC033,0.00,VWS V14.01,2013-06-08 20:02:00,
2013-06-08 16:07:00,61.0,53.7,29.86,WSW,244,3.1,5.4,77,0.00,,OVC033,0.00,VWS V14.01,2013-06-08 20:07:00,
2013-06-08 16:12:00,61.0,53.0,29.86,WSW,240,5.4,10.1,75,0.00,,OVC033,0.00,VWS V14.01,2013-06-08 20:12:00,
2013-06-08 16:17:00,61.0,53.0,29.86,SW,216,5.4,10.1,75,0.00,,OVC033,0.00,VWS V14.01,2013-06-08 20:17:00,
2013-06-08 16:22:00,61.0,53.0,29.86,West,273,5.8,8.1,75,0.00,,OVC033,0.00,VWS V14.01,2013-06-08 20:22:00,
2013-06-08 16:27:00,60.8,51.7,29.86,SW,218,8.3,8.3,72,0.00,,OVC033,0.00,VWS V14.01,2013-06-08 20:27:00,
2013-06-08 16:32:00,61.0,52.3,29.86,WSW,251,5.4,10.1,73,0.00,,OVC033,0.00,VWS V14.01,2013-06-08 20:32:00,
2013-06-08 16:37:00,61.2,52.8,29.89,SW,223,5.4,5.8,74,0.00,,BKN040,0.00,VWS V14.01,2013-06-08 20:37:00,
2013-06-08 16:42:00,61.2,52.8,29.89,WSW,237,8.3,8.3,74,0.00,,BKN040,0.00,VWS V14.01,2013-06-08 20:42:00,
2013-06-08 16:48:00,61.0,52.3,29.89,SSW,212,5.8,6.3,73,0.00,,BKN040,0.00,VWS V14.01,2013-06-08 20:48:00,
2013-06-08 16:53:00,61.0,52.7,29.89,SW,229,5.8,6.3,74,0.00,,BKN040,0.00,VWS V14.01,2013-06-08 20:53:00,
2013-06-08 16:58:00,60.8,52.8,29.89,SW,216,2.7,8.7,75,0.00,,BKN040,0.00,VWS V14.01,2013-06-08 20:58:00,
2013-06-08 17:03:00,60.8,52.8,29.89,SW,219,5.8,7.2,75,0.00,,BKN040,0.00,VWS V14.01,2013-06-08 21:03:00,
2013-06-08 17:08:00,61.0,53.0,29.89,SSW,207,4.0,6.3,75,0.00,,BKN040,0.00,VWS V14.01,2013-06-08 21:08:00,
2013-06-08 17:13:00,61.0,53.0,29.89,SW,234,10.1,10.1,75,0.00,,BKN040,0.00,VWS V14.01,2013-06-08 21:13:00,
2013-06-08 17:18:00,61.0,53.0,29.89,SW,223,3.6,10.1,75,0.00,,BKN040,0.00,VWS V14.01,2013-06-08 21:18:00,
2013-06-08 17:23:00,61.7,54.1,29.86,WSW,248,9.2,10.5,76,0.00,,BKN040,0.00,VWS V14.01,2013-06-08 21:23:00,
2013-06-08 17:28:00,61.5,53.5,29.86,SW,226,5.8,8.7,75,0.00,,BKN040,0.00,VWS V14.01,2013-06-08 21:28:00,
2013-06-08 17:33:00,61.5,53.5,29.86,WSW,243,4.9,5.4,75,0.00,,OVC060,0.00,VWS V14.01,2013-06-08 21:33:00,
2013-06-08 17:38:00,61.5,53.5,29.89,SW,226,8.7,10.5,75,0.00,,OVC060,0.00,VWS V14.01,2013-06-08 21:38:00,
2013-06-08 17:43:00,61.5,53.5,29.89,SSW,208,5.8,9.6,75,0.00,,OVC060,0.00,VWS V14.01,2013-06-08 21:43:00,
2013-06-08 17:48:00,61.5,53.2,29.89,SW,218,10.1,11.0,74,0.00,,OVC060,0.00,VWS V14.01,2013-06-08 21:48:00,
2013-06-08 17:53:00,61.5,53.2,29.89,WSW,244,10.1,10.1,74,0.00,,OVC060,0.00,VWS V14.01,2013-06-08 21:53:00,
2013-06-08 17:58:00,61.3,53.0,29.89,WSW,242,8.3,8.3,74,0.00,,OVC060,0.00,VWS V14.01,2013-06-08 21:58:00,
2013-06-08 18:03:00,61.5,53.2,29.89,West,277,4.0,11.0,74,0.00,,OVC060,0.00,VWS V14.01,2013-06-08 22:03:00,
2013-06-08 18:08:00,61.5,53.2,29.89,SW,220,6.3,10.1,74,0.00,,OVC060,0.00,VWS V14.01,2013-06-08 22:08:00,
2013-06-08 18:13:00,61.5,53.5,29.89,SSW,204,5.4,8.1,75,0.00,,OVC060,0.00,VWS V14.01,2013-06-08 22:13:00,
2013-06-08 18:18:00,61.5,53.5,29.89,SSW,213,4.9,8.3,75,0.00,,OVC060,0.00,VWS V14.01,2013-06-08 22:18:00,
2013-06-08 18:23:00,61.5,53.9,29.89,SW,220,6.3,7.6,76,0.00,,OVC060,0.00,VWS V14.01,2013-06-08 22:23:00,
2013-06-08 18:28:00,61.7,54.4,29.89,SW,229,5.4,5.8,77,0.00,,OVC060,0.00,VWS V14.01,2013-06-08 22:28:00,
2013-06-08 18:34:00,61.5,53.9,29.89,WSW,244,10.1,10.1,76,0.00,,BKN220,0.00,VWS V14.01,2013-06-08 22:34:00,
2013-06-08 18:39:00,61.3,53.4,29.89,SW,214,5.8,8.7,75,0.00,,BKN220,0.00,VWS V14.01,2013-06-08 22:39:00,
2013-06-08 18:44:00,61.3,53.4,29.89,SW,217,3.1,8.3,75,0.00,,BKN220,0.00,VWS V14.01,2013-06-08 22:44:00,
2013-06-08 18:49:00,61.5,53.5,29.89,SW,228,5.8,7.6,75,0.00,,BKN220,0.00,VWS V14.01,2013-06-08 22:49:00,
2013-06-08 18:54:00,61.5,53.5,29.89,SSW,209,4.0,7.6,75,0.00,,BKN220,0.00,VWS V14.01,2013-06-08 22:54:00,
2013-06-08 18:59:00,62.2,54.6,29.89,SW,223,4.0,7.6,76,0.00,,BKN220,0.00,VWS V14.01,2013-06-08 22:59:00,
2013-06-08 19:04:00,62.6,54.6,29.89,SSW,213,6.3,7.6,75,0.00,,BKN220,0.00,VWS V14.01,2013-06-08 23:04:00,
2013-06-08 19:09:00,62.4,54.4,29.89,SW,222,4.9,7.6,75,0.00,,BKN220,0.00,VWS V14.01,2013-06-08 23:09:00,
2013-06-08 19:14:00,62.1,53.7,29.89,SW,215,5.4,7.6,74,0.00,,BKN220,0.00,VWS V14.01,2013-06-08 23:14:00,
2013-06-08 19:19:00,62.2,53.9,29.89,SW,228,5.8,7.6,74,0.00,,BKN220,0.00,VWS V14.01,2013-06-08 23:19:00,
2013-06-08 19:24:00,63.0,54.5,29.89,WSW,241,6.3,6.3,74,0.00,,BKN220,0.00,VWS V14.01,2013-06-08 23:24:00,
2013-06-08 19:29:00,62.8,54.0,29.89,WSW,243,8.3,11.0,73,0.00,,BKN220,0.00,VWS V14.01,2013-06-08 23:29:00,
2013-06-08 19:34:00,62.6,53.8,29.89,SW,236,3.1,8.1,73,0.00,,BKN230,0.00,VWS V14.01,2013-06-08 23:34:00,
2013-06-08 19:39:00,62.6,53.8,29.89,West,269,7.2,7.2,73,0.00,,BKN230,0.00,VWS V14.01,2013-06-08 23:39:00,
2013-06-08 19:44:00,62.4,53.7,29.89,West,265,5.8,5.8,73,0.00,,BKN230,0.00,VWS V14.01,2013-06-08 23:44:00,
2013-06-08 19:49:00,62.1,52.6,29.89,SSW,207,9.6,9.6,71,0.00,,BKN230,0.00,VWS V14.01,2013-06-08 23:49:00,
2013-06-08 19:54:00,61.9,52.0,29.92,SW,225,5.4,7.6,70,0.00,,BKN230,0.00,VWS V14.01,2013-06-08 23:54:00,
2013-06-08 19:59:00,61.7,52.2,29.92,WSW,238,8.7,8.7,71,0.00,,BKN230,0.00,VWS V14.01,2013-06-08 23:59:00,
2013-06-08 20:04:00,61.3,51.9,29.92,SSW,202,4.9,8.3,71,0.00,,BKN230,0.00,VWS V14.01,2013-06-09 00:04:00,
2013-06-08 20:09:00,61.2,51.3,29.92,SSW,211,4.9,8.3,70,0.00,,BKN230,0.00,VWS V14.01,2013-06-09 00:09:00,
2013-06-08 20:14:00,61.0,51.5,29.92,SSW,212,5.4,6.3,71,0.00,,BKN230,0.00,VWS V14.01,2013-06-09 00:14:00,
2013-06-08 20:20:00,60.8,51.7,29.92,SW,233,4.0,8.7,72,0.00,,BKN230,0.00,VWS V14.01,2013-06-09 00:20:00,
2013-06-08 20:25:00,60.6,51.6,29.92,SW,216,3.6,7.6,72,0.00,,BKN230,0.00,VWS V14.01,2013-06-09 00:25:00,
2013-06-08 20:30:00,60.4,51.8,29.92,SW,222,6.7,6.7,73,0.00,,BKN230,0.00,VWS V14.01,2013-06-09 00:30:00,
2013-06-08 20:35:00,60.4,51.8,29.92,SW,235,3.6,6.3,73,0.00,,BKN230,0.00,VWS V14.01,2013-06-09 00:35:00,
2013-06-08 20:40:00,60.1,51.8,29.92,WSW,249,3.6,3.6,74,0.00,,BKN230,0.00,VWS V14.01,2013-06-09 00:40:00,
2013-06-08 20:45:00,60.1,51.8,29.92,SSW,212,3.1,4.9,74,0.00,,BKN230,0.00,VWS V14.01,2013-06-09 00:45:00,
2013-06-08 20:50:00,60.1,52.1,29.92,SW,219,2.7,6.3,75,0.00,,BKN230,0.00,VWS V14.01,2013-06-09 00:50:00,
2013-06-08 20:55:00,59.9,52.0,29.92,SW,226,4.9,6.3,75,0.00,,BKN230,0.00,VWS V14.01,2013-06-09 00:55:00,
2013-06-08 21:00:00,59.7,51.8,29.92,West,261,2.2,8.1,75,0.00,,BKN230,0.00,VWS V14.01,2013-06-09 01:00:00,
2013-06-08 21:05:00,59.7,51.8,29.92,SW,230,7.6,8.7,75,0.00,,BKN230,0.00,VWS V14.01,2013-06-09 01:05:00,
2013-06-08 21:10:00,59.5,51.6,29.92,SW,224,8.3,8.7,75,0.00,,BKN230,0.00,VWS V14.01,2013-06-09 01:10:00,
2013-06-08 21:15:00,59.4,51.1,29.92,SW,224,2.2,9.6,74,0.00,,BKN230,0.00,VWS V14.01,2013-06-09 01:15:00,
2013-06-08 21:20:00,59.2,50.9,29.92,SW,221,5.8,8.7,74,0.00,,BKN230,0.00,VWS V14.01,2013-06-09 01:20:00,
2013-06-08 21:25:00,59.2,51.3,29.92,WSW,240,6.3,6.7,75,0.00,,BKN230,0.00,VWS V14.01,2013-06-09 01:25:00,
2013-06-08 21:30:00,59.0,51.1,29.92,SW,224,6.3,8.7,75,0.00,,BKN230,0.00,VWS V14.01,2013-06-09 01:30:00,
2013-06-08 21:35:00,58.8,51.3,29.92,SW,227,5.4,8.1,76,0.00,,OVC070,0.00,VWS V14.01,2013-06-09 01:35:00,
2013-06-08 21:40:00,58.8,51.3,29.95,WSW,252,5.4,8.7,76,0.00,,OVC070,0.00,VWS V14.01,2013-06-09 01:40:00,
2013-06-08 21:45:00,58.8,51.6,29.95,SSE,162,3.6,8.1,77,0.00,,OVC070,0.00,VWS V14.01,2013-06-09 01:45:00,
2013-06-08 21:51:00,58.6,51.1,29.95,SW,214,6.3,10.1,76,0.00,,OVC070,0.00,VWS V14.01,2013-06-09 01:51:00,
2013-06-08 21:56:00,58.5,50.9,29.95,SW,226,6.7,8.7,76,0.00,,OVC070,0.00,VWS V14.01,2013-06-09 01:56:00,
2013-06-08 22:01:00,58.3,50.4,29.95,WSW,240,3.6,8.3,75,0.00,,OVC070,0.00,VWS V14.01,2013-06-09 02:01:00,
2013-06-08 22:06:00,58.1,50.2,29.95,SW,219,6.3,10.5,75,0.00,,OVC070,0.00,VWS V14.01,2013-06-09 02:06:00,
2013-06-08 22:11:00,57.9,50.0,29.95,SSW,203,6.3,8.7,75,0.00,,OVC070,0.00,VWS V14.01,2013-06-09 02:11:00,
2013-06-08 22:16:00,57.9,50.0,29.95,SW,226,3.6,8.3,75,0.00,,OVC070,0.00,VWS V14.01,2013-06-09 02:16:00,
2013-06-08 22:21:00,57.7,49.5,29.95,SW,220,4.0,9.6,74,0.00,,OVC070,0.00,VWS V14.01,2013-06-09 02:21:00,
2013-06-08 22:26:00,57.6,49.7,29.95,SSW,213,4.9,6.3,75,0.00,,OVC070,0.00,VWS V14.01,2013-06-09 02:26:00,
2013-06-08 22:31:00,57.4,49.5,29.95,SW,235,4.0,8.1,75,0.00,,OVC070,0.00,VWS V14.01,2013-06-09 02:31:00,
2013-06-08 22:36:00,57.2,49.4,29.95,SW,218,4.0,8.3,75,0.00,,BKN210,0.00,VWS V14.01,2013-06-09 02:36:00,
2013-06-08 22:42:00,57.2,49.4,29.95,SW,234,3.6,7.6,75,0.00,,BKN210,0.00,VWS V14.01,2013-06-09 02:42:00,
2013-06-08 22:47:00,57.0,49.5,29.95,SW,226,8.1,8.1,76,0.00,,BKN210,0.00,VWS V14.01,2013-06-09 02:47:00,
2013-06-08 22:52:00,57.0,49.9,29.95,WSW,244,6.3,6.3,77,0.00,,BKN210,0.00,VWS V14.01,2013-06-09 02:52:00,
2013-06-08 22:57:00,56.8,49.7,29.95,SW,223,5.4,5.4,77,0.00,,BKN210,0.00,VWS V14.01,2013-06-09 02:57:00,
2013-06-08 23:02:00,56.8,49.7,29.95,SSW,211,4.0,5.8,77,0.00,,BKN210,0.00,VWS V14.01,2013-06-09 03:02:00,
2013-06-08 23:07:00,56.8,50.1,29.95,SW,228,6.3,6.3,78,0.00,,BKN210,0.00,VWS V14.01,2013-06-09 03:07:00,
2013-06-08 23:12:00,56.8,50.1,29.95,SW,218,4.0,5.4,78,0.00,,BKN210,0.00,VWS V14.01,2013-06-09 03:12:00,
2013-06-08 23:17:00,56.7,50.2,29.95,SW,220,5.4,8.3,79,0.00,,BKN210,0.00,VWS V14.01,2013-06-09 03:17:00,
2013-06-08 23:22:00,56.7,50.2,29.95,SW,233,6.3,8.7,79,0.00,,BKN210,0.00,VWS V14.01,2013-06-09 03:22:00,
2013-06-08 23:27:00,56.5,50.1,29.95,SW,222,5.8,8.1,79,0.00,,BKN210,0.00,VWS V14.01,2013-06-09 03:27:00,
2013-06-08 23:32:00,56.3,49.9,29.95,SW,227,5.4,5.8,79,0.00,,BKN200,0.00,VWS V14.01,2013-06-09 03:32:00,
2013-06-08 23:37:00,56.3,49.9,29.95,SSW,208,6.7,6.7,79,0.00,,BKN200,0.00,VWS V14.01,2013-06-09 03:37:00,
2013-06-08 23:43:00,56.3,49.9,29.95,WSW,238,4.0,7.6,79,0.00,,BKN200,0.00,VWS V14.01,2013-06-09 03:43:00,
2013-06-08 23:48:00,56.3,50.2,29.95,SSW,196,5.4,8.1,80,0.00,,BKN200,0.00,VWS V14.01,2013-06-09 03:48:00,
2013-06-08 23:53:00,56.5,50.4,29.95,SW,232,8.1,8.1,80,0.00,,BKN200,0.00,VWS V14.01,2013-06-09 03:53:00,
2013-06-08 23:58:00,56.3,49.9,29.95,SW,218,3.6,8.3,79,0.00,,BKN200,0.00,VWS V14.01,2013-06-09 03:58:00,